[[{"header":{"parameterUnit":"m.s-1","parameterCategory":1,"la1":30.2991,"la2":30.254,"lo1":-89.0895,"lo2":-89.0444,"dx":0.0017,"dy":0.0017,"nx":28,"ny":28,"refTime":"2023-01-13T09:00:00:Z","depth":0,"parameterNumber":2,"parameterNumberName":"U-component_of_WINDS"},"data":[0,0,0,0,0,0,0,0,0,0,0,0,0,0,0,0,0,0,0,0,0,0,0,0,0,0,0,0,0,0,0,0,0,0,0,0,0,0,0,0,0,0,0,0,0,0,0,0,0,0,0,0,0,0,0,0,0,0,0.5251,0.5251,0,0.5243,0.5242,0.5242,0.5263,0.5264,0.5264,0.5265,0.5254,0.5253,0.5252,0,0,0,0,0,0,0,0,0,0,0,0,0,0.5284,0.5283,0.5251,0.5251,0.5251,0.5243,0.5242,0.5242,0.5263,0.5264,0.5264,0.5265,0.5254,0.5253,0.5252,0,0,0,0,0,0,0,0,0,0,0,0,0,0.5272,0.5283,0.5251,0.526,0.5261,0.5243,0.5242,0.5242,0.5263,0.5264,0.5265,0.5266,0.5254,0.5253,0.5252,0.5223,0,0,0.5247,0.5247,0,0,0,0,0,0,0,0,0.5272,0.5271,0.5259,0.5259,0.526,0.5255,0.525,0.5236,0.5262,0.5262,0.5265,0.5266,0.5253,0.5252,0.5248,0.5223,0.5222,0.5247,0.5246,0.5246,0.5246,0,0,0,0,0,0,0,0.5273,0.5271,0.5248,0.5259,0.526,0.5264,0.5264,0.5247,0.5252,0.5262,0.5263,0.5262,0.5254,0.5249,0.5248,0.5222,0.5247,0.5246,0.5245,0.5245,0.5175,0.5174,0,0,0,0,0,0,0.5273,0.5272,0.5248,0.5247,0.5269,0.5263,0.5262,0.5256,0.5252,0.5253,0.5261,0.5263,0.5251,0.5249,0.5248,0.5215,0.5246,0.5245,0.5244,0.5176,0.5175,0.5174,0,0,0,0,0,0,0.5274,0.5271,0.5248,0.526,0.5257,0.5261,0.5254,0.5255,0.5251,0.5252,0.5253,0.5256,0.5252,0.525,0.523,0.5215,0.5244,0.5243,0.5177,0.5176,0.5174,0.5149,0,0,0,0,0,0,0.5275,0.5271,0.526,0.526,0.5257,0.523,0.5253,0.5254,0.5248,0.5251,0.5247,0.5247,0.5252,0.5232,0.5228,0.5213,0.5242,0.5179,0.5177,0.5175,0.5151,0.5146,0.5143,0,0,0,0,0,0.5276,0.5252,0.526,0.5257,0.5244,0.523,0.5228,0.5235,0.5247,0.5236,0.5238,0.5248,0.5217,0.523,0.5226,0.521,0.518,0.5177,0.5175,0.5153,0.5147,0.5143,0,0,0,0,0,0,0.525,0.5252,0.526,0.5236,0.5233,0.5233,0.5219,0.5229,0.5221,0.5223,0.5232,0.5231,0.5209,0.5208,0.5222,0.5184,0.5201,0.5197,0.5185,0.518,0.5176,0.5176,0.5241,0,0,0,0,0,0.5242,0.5231,0.5233,0.5212,0.521,0.5215,0.5209,0.5215,0.5212,0.521,0.5209,0.5205,0.5195,0.5187,0.5178,0.5152,0.5151,0.5139,0.5135,0.5132,0.5128,0.5115,0.511,0.5166,0.5166,0.5166,0,0,0.5223,0.5224,0.5216,0.5207,0.5205,0.5193,0.5213,0.52,0.5191,0.5207,0.5189,0.5189,0.5185,0.5162,0.5152,0.516,0.5113,0.5129,0.5126,0.5125,0.5112,0.5107,0.5102,0.5165,0.5165,0.5165,0,0,0.5185,0.5184,0.5166,0.5165,0.5162,0.5166,0.5162,0.5162,0.5162,0.5145,0.5157,0.5147,0.5129,0.5125,0.5121,0.5085,0.5093,0.5081,0.5059,0.5046,0.5042,0.5038,0.5024,0.502,0.5078,0.5078,0.5078,0,0.5162,0.5145,0.5156,0.5142,0.5137,0.5154,0.5136,0.5134,0.5128,0.5124,0.5134,0.5113,0.5111,0.5088,0.5079,0.5076,0.5071,0.5081,0.5042,0.5038,0.5034,0.5022,0.5017,0.5077,0.5077,0.5077,0.5077,0,0.5118,0.5107,0.5093,0.5088,0.5082,0.5066,0.5074,0.5067,0.5075,0.5078,0.506,0.5059,0.505,0.5046,0.5052,0.5024,0.5029,0.504,0.5057,0.5027,0.5015,0.5011,0.5075,0.5075,0.5076,0.5076,0,0,0.506,0.5063,0.5058,0.5056,0.5056,0.5047,0.5033,0.5025,0.5019,0.5015,0.5003,0.4989,0.5,0.4995,0.5002,0.4991,0.4962,0.5003,0.5004,0.4995,0.4931,0.4922,0.4916,0.4969,0.4968,0.4967,0.4931,0,0.5021,0.4996,0.5007,0.4981,0.4971,0.4988,0.4975,0.4974,0.4977,0.4969,0.4972,0.4962,0.4977,0.4975,0.4965,0.4967,0.4949,0.497,0.4957,0.4956,0.4956,0.491,0.4899,0.4865,0.4927,0.4926,0.4925,0,0.4972,0.4967,0.4941,0.4944,0.494,0.4929,0.4924,0.4916,0.4915,0.4918,0.4915,0.4924,0.4911,0.4929,0.491,0.4925,0.492,0.4921,0.492,0.4918,0.4938,0.4905,0.4854,0.4849,0.4918,0.4919,0.4919,0,0.4931,0.4919,0.4902,0.49,0.4904,0.4895,0.4896,0.4897,0.4892,0.4888,0.4885,0.4879,0.4875,0.487,0.4878,0.4891,0.4858,0.4877,0.486,0.486,0.4851,0.4851,0.4797,0.485,0.485,0.485,0.485,0,0.4886,0.4869,0.4884,0.4873,0.4855,0.4868,0.4849,0.4852,0.4853,0.4843,0.4858,0.4848,0.486,0.4852,0.4858,0.4842,0.484,0.4842,0.4844,0.484,0.484,0.4836,0.4838,0.4849,0.4849,0.4849,0.485,0,0.4836,0.4845,0.4828,0.4834,0.4835,0.4821,0.4826,0.4816,0.4822,0.481,0.4808,0.4816,0.4807,0.4816,0.4807,0.4812,0.4789,0.4795,0.479,0.4791,0.4773,0.4774,0.4714,0.4706,0.4765,0.4764,0.4764,0,0.4805,0.4793,0.4798,0.4794,0.4794,0.4786,0.4782,0.4795,0.479,0.479,0.478,0.4773,0.4768,0.4753,0.4758,0.4752,0.4757,0.4737,0.4756,0.4753,0.4756,0.4756,0.4755,0.4732,0.4731,0.4731,0.473,0,0.475,0.4757,0.4751,0.4747,0.4743,0.474,0.4738,0.4734,0.4747,0.4741,0.4733,0.4729,0.4722,0.4715,0.4711,0.4711,0.4723,0.4725,0.472,0.4715,0.4712,0.4713,0.4778,0.4725,0.4726,0.4726,0.4726,0.4727,0.4709,0.4699,0.4702,0.4695,0.4696,0.4695,0.4687,0.4693,0.4686,0.4682,0.469,0.468,0.4681,0.4678,0.4677,0.467,0.4678,0.4672,0.467,0.4668,0.4665,0.4715,0.4669,0.4669,0.467,0.467,0.467,0,0.4654,0.4657,0.4651,0.465,0.4645,0.4659,0.4658,0.4653,0.4644,0.4645,0.4641,0.4632,0.4626,0.4632,0.4627,0.462,0.4625,0.4618,0.4618,0.4618,0.4658,0.4662,0.4614,0.4614,0.4614,0.4614,0.4614,0.4614,0.4625,0.4609,0.4616,0.4601,0.4605,0.4596,0.4595,0.4594,0.4595,0.4585,0.4581,0.4585,0.4588,0.4584,0.4579,0.4581,0.4578,0.4569,0.4573,0.461,0.4615,0.462,0.4624,0.4569,0.4569,0.4533,0.4533,0.4533]},{"header":{"parameterUnit":"m.s-1","parameterCategory":1,"la1":30.2991,"la2":30.254,"lo1":-89.0895,"lo2":-89.0444,"dx":0.0017,"dy":0.0017,"nx":28,"ny":28,"refTime":"2023-01-13T09:00:00:Z","depth":0,"parameterNumber":3,"parameterNumberName":"V-component_of_WINDS"},"data":[0,0,0,0,0,0,0,0,0,0,0,0,0,0,0,0,0,0,0,0,0,0,0,0,0,0,0,0,0,0,0,0,0,0,0,0,0,0,0,0,0,0,0,0,0,0,0,0,0,0,0,0,0,0,0,0,0,0,-6.3119,-6.3121,0,-6.3296,-6.3298,-6.33,-6.3233,-6.3229,-6.3225,-6.3221,-6.3397,-6.3405,-6.3414,0,0,0,0,0,0,0,0,0,0,0,0,0,-6.2718,-6.2725,-6.3119,-6.3121,-6.3124,-6.3296,-6.3298,-6.3301,-6.3234,-6.3229,-6.3224,-6.3219,-6.3394,-6.3404,-6.3414,0,0,0,0,0,0,0,0,0,0,0,0,0,-6.2893,-6.2728,-6.3119,-6.3111,-6.3112,-6.3295,-6.3298,-6.3301,-6.3235,-6.3229,-6.3223,-6.3217,-6.3391,-6.3403,-6.3416,-6.3616,0,0,-6.3455,-6.346,0,0,0,0,0,0,0,0,-6.2883,-6.2908,-6.311,-6.3112,-6.3114,-6.3236,-6.3221,-6.3407,-6.3236,-6.3188,-6.3221,-6.3214,-6.3348,-6.3364,-6.341,-6.3624,-6.3631,-6.3456,-6.3463,-6.3469,-6.3473,0,0,0,0,0,0,0,-6.2871,-6.29,-6.3189,-6.3113,-6.3115,-6.3097,-6.3115,-6.3256,-6.33,-6.3192,-6.3187,-6.321,-6.3348,-6.3398,-6.3414,-6.3634,-6.3455,-6.3467,-6.3475,-6.3479,-6.4018,-6.4025,0,0,0,0,0,0,-6.2859,-6.289,-6.3183,-6.3194,-6.2981,-6.3109,-6.3129,-6.3203,-6.3298,-6.3307,-6.3215,-6.3206,-6.338,-6.3399,-6.342,-6.3659,-6.3469,-6.3481,-6.3488,-6.4012,-6.402,-6.4027,0,0,0,0,0,0,-6.2851,-6.2886,-6.3176,-6.3041,-6.3077,-6.3122,-6.3206,-6.321,-6.326,-6.3315,-6.3322,-6.3258,-6.3376,-6.3402,-6.3567,-6.3664,-6.3486,-6.3498,-6.4004,-6.4014,-6.4023,-6.414,0,0,0,0,0,0,-6.2839,-6.2883,-6.2961,-6.3044,-6.3084,-6.3323,-6.3212,-6.3218,-6.3283,-6.3273,-6.3358,-6.3367,-6.3373,-6.3549,-6.358,-6.3679,-6.3508,-6.3995,-6.4008,-6.402,-6.4128,-6.4153,-6.4174,0,0,0,0,0,-6.2825,-6.2986,-6.2966,-6.3001,-6.3183,-6.3329,-6.3352,-6.3357,-6.3291,-6.3369,-6.3404,-6.3364,-6.3649,-6.3566,-6.3601,-6.3705,-6.3989,-6.4005,-6.4019,-6.4117,-6.4148,-6.4174,0,0,0,0,0,0,-6.2913,-6.2997,-6.2975,-6.3168,-6.3242,-6.3317,-6.3416,-6.339,-6.3483,-6.347,-6.3471,-6.3491,-6.3661,-6.3699,-6.3606,-6.3902,-6.3809,-6.3831,-6.3871,-6.3901,-6.3924,-6.3911,-6.3518,0,0,0,0,0,-6.2955,-6.3068,-6.3135,-6.3298,-6.3337,-6.337,-6.3434,-6.3431,-6.3508,-6.3538,-6.3585,-6.3659,-6.3765,-6.3835,-6.3936,-6.4133,-6.4149,-6.4221,-6.4244,-6.4263,-6.4282,-6.4388,-6.442,-6.4076,-6.4076,-6.4076,0,0,-6.3042,-6.3102,-6.3173,-6.3317,-6.3374,-6.349,-6.3397,-6.3523,-6.3608,-6.3557,-6.3716,-6.3753,-6.3836,-6.4018,-6.41,-6.4055,-6.4381,-6.4282,-6.4297,-6.4306,-6.4407,-6.4439,-6.4468,-6.4087,-6.4085,-6.4083,0,0,-6.326,-6.3318,-6.346,-6.3519,-6.3607,-6.3628,-6.3662,-6.3742,-6.3765,-6.3926,-6.3889,-6.3989,-6.4172,-6.4232,-6.4286,-6.4526,-6.4492,-6.4558,-6.468,-6.4783,-6.481,-6.4834,-6.4919,-6.4949,-6.4578,-6.4578,-6.4578,0,-6.3357,-6.3532,-6.3535,-6.3665,-6.3729,-6.3689,-6.3831,-6.3888,-6.4004,-6.4048,-6.3996,-6.4224,-6.4277,-6.4471,-6.453,-6.4575,-6.4613,-6.4549,-6.4806,-6.483,-6.4853,-6.4933,-6.4965,-6.4585,-6.4585,-6.4584,-6.4583,0,-6.3646,-6.3767,-6.3871,-6.3986,-6.4061,-6.4196,-6.4219,-6.4294,-6.4285,-6.431,-6.4473,-6.4535,-6.4647,-6.4692,-6.4684,-6.4886,-6.4855,-6.4805,-6.4711,-6.4893,-6.4968,-6.4999,-6.4596,-6.4593,-6.4591,-6.4589,0,0,-6.3925,-6.404,-6.4078,-6.4129,-6.4222,-6.4315,-6.4448,-6.4559,-6.4623,-6.4703,-6.4813,-6.4969,-6.4923,-6.4984,-6.4982,-6.5073,-6.5257,-6.5011,-6.5013,-6.5054,-6.5482,-6.5519,-6.5555,-6.5235,-6.5241,-6.5246,-6.5474,0,-6.415,-6.4385,-6.4392,-6.4606,-6.4717,-6.468,-6.4795,-6.4864,-6.4891,-6.4988,-6.5016,-6.5126,-6.5058,-6.5095,-6.5182,-6.5216,-6.5343,-6.52,-6.5336,-6.5341,-6.5317,-6.5594,-6.5634,-6.5847,-6.5504,-6.5509,-6.5513,0,-6.4445,-6.4536,-6.4762,-6.4839,-6.4885,-6.4989,-6.5091,-6.5184,-6.526,-6.5274,-6.5343,-6.5327,-6.546,-6.5362,-6.5544,-6.5447,-6.5502,-6.5527,-6.5535,-6.5548,-6.5438,-6.5614,-6.5915,-6.5947,-6.556,-6.5556,-6.5552,0,-6.4625,-6.4804,-6.4962,-6.5007,-6.5101,-6.5174,-6.5216,-6.5287,-6.5353,-6.5441,-6.5483,-6.5585,-6.564,-6.5718,-6.573,-6.5657,-6.5913,-6.5815,-6.5926,-6.5926,-6.5981,-6.5978,-6.6295,-6.6018,-6.6018,-6.6017,-6.6016,0,-6.4875,-6.5015,-6.5044,-6.5142,-6.5296,-6.5301,-6.5452,-6.5488,-6.5551,-6.5653,-6.5627,-6.5722,-6.5732,-6.583,-6.5839,-6.5988,-6.6013,-6.6026,-6.6027,-6.6029,-6.6027,-6.6065,-6.6051,-6.6025,-6.6024,-6.6022,-6.602,0,-6.5103,-6.5129,-6.5298,-6.5373,-6.5395,-6.5505,-6.5568,-6.566,-6.5684,-6.5813,-6.5844,-6.5881,-6.5995,-6.6014,-6.6148,-6.6154,-6.6332,-6.6317,-6.6307,-6.6305,-6.6414,-6.6403,-6.6767,-6.6814,-6.6506,-6.6509,-6.6512,0,-6.5261,-6.5368,-6.5454,-6.5521,-6.5568,-6.5676,-6.5743,-6.5752,-6.5822,-6.5917,-6.5997,-6.6108,-6.6198,-6.6381,-6.6419,-6.652,-6.6508,-6.6628,-6.6523,-6.6521,-6.6509,-6.6503,-6.6513,-6.6649,-6.6652,-6.6655,-6.6657,0,-6.5539,-6.5547,-6.5645,-6.5749,-6.583,-6.5912,-6.5989,-6.6044,-6.6062,-6.6143,-6.626,-6.633,-6.6466,-6.6577,-6.6677,-6.6718,-6.6691,-6.669,-6.6721,-6.6723,-6.6713,-6.6719,-6.6362,-6.6681,-6.6679,-6.6677,-6.6676,-6.6675,-6.5737,-6.5829,-6.5905,-6.6015,-6.6074,-6.6146,-6.6236,-6.6272,-6.637,-6.6483,-6.6481,-6.6609,-6.668,-6.6813,-6.6861,-6.696,-6.6921,-6.6965,-6.6977,-6.6988,-6.6998,-6.6697,-6.6978,-6.6977,-6.6977,-6.6976,-6.6976,0,-6.6013,-6.6059,-6.6161,-6.627,-6.6357,-6.6324,-6.6407,-6.6481,-6.6595,-6.6665,-6.6754,-6.6887,-6.6994,-6.704,-6.7144,-6.7214,-6.7204,-6.7241,-6.7236,-6.7246,-6.7027,-6.699,-6.7248,-6.7248,-6.7248,-6.7248,-6.7247,-6.7247,-6.6167,-6.6321,-6.6337,-6.652,-6.6564,-6.6691,-6.6741,-6.6807,-6.6862,-6.7013,-6.7102,-6.7132,-6.7192,-6.73,-6.7396,-6.7406,-6.7446,-6.7489,-6.7494,-6.7289,-6.7261,-6.7235,-6.72,-6.7497,-6.7498,-6.7704,-6.7705,-6.7707]}]]